Simultaneous Nadir Overpasses (SNOs) Predictions

Prediction of SNOs between GOES-15 and METOP-B Satellite Orbit:

Table of predicted SNOs for the next 14.0 days since TLE Epoch: 9/6/2019
Index Date Time (GOES-15) GOES-15 Lat,Lon METOP-B Lat,Lon Distance(km) Time Diff (sec)
1 09/07/2019 05:58:15 0.19,-128.25 0.48,-126.91 152.71 80
2 09/08/2019 18:14:27 -0.21,-128.27 0.52,-131.48 366.07 80
3 09/09/2019 17:56:27 -0.20,-128.25 -0.60,-126.48 201.58 80
4 09/11/2019 06:12:47 0.22,-128.18 -0.44,-131.08 330.78 80
5 09/12/2019 05:54:48 0.21,-128.15 0.68,-126.08 236.30 80
6 09/13/2019 18:10:59 -0.23,-128.16 0.31,-130.65 283.37 80
7 09/14/2019 17:53:00 -0.22,-128.14 -0.80,-125.65 283.96 80
8 09/16/2019 06:09:20 0.25,-128.06 -0.23,-130.25 248.37 80
9 09/17/2019 05:51:20 0.23,-128.04 0.84,-125.24 318.27 80
10 09/18/2019 18:07:31 -0.25,-128.03 0.17,-129.80 202.64 80
11 09/19/2019 17:49:32 -0.24,-128.00 -0.95,-124.81 363.99 80




NCC Satellite Simultaneous Nadir Overpasses (SNOs) Prediction Service
